[[{"header":{"parameterUnit":"m.s-1","parameterCategory":1,"la1":30.2991,"la2":30.254,"lo1":-89.0895,"lo2":-89.0444,"dy":0.0017,"dx":0.0017,"nx":28,"ny":28,"refTime":"2025-01-13T03:00:00:Z","depth":0,"parameterNumber":2,"parameterNumberName":"U-component_of_WINDS"},"data":[0,0,0,0,0,0,0,0,0,0,0,0,0,0,0,0,0,0,0,0,0,0,0,0,0,0,0,0,0,0,0,0,0,0,0,0,0,0,0,0,0,0,0,0,0,0,0,0,0,0,0,0,0,0,0,0,0,0,-4.0152,-4.0152,0,-4.0126,-4.0126,-4.0126,-3.9953,-3.9949,-3.9945,-3.9941,-3.9917,-3.992,-3.9923,0,0,0,0,0,0,0,0,0,0,0,0,0,-4.0055,-4.0058,-4.0152,-4.0152,-4.0152,-4.0126,-4.0126,-4.0126,-3.9954,-3.9949,-3.9944,-3.9939,-3.9915,-3.9919,-3.9923,0,0,0,0,0,0,0,0,0,0,0,0,0,-4.007,-4.0059,-4.0152,-4.0063,-4.0055,-4.0126,-4.0126,-4.0125,-3.9955,-3.9949,-3.9943,-3.9937,-3.9914,-3.9919,-3.9924,-4.008,0,0,-3.9939,-3.9941,0,0,0,0,0,0,0,0,-4.0069,-4.0074,-4.0077,-4.0069,-4.006,-4.0036,-4.0082,-4.011,-3.9957,-3.9993,-3.9941,-3.9934,-3.9962,-3.9962,-3.9971,-4.0079,-4.0078,-3.9939,-3.9942,-3.9944,-3.9946,0,0,0,0,0,0,0,-4.0069,-4.0074,-4.0142,-4.0077,-4.0067,-4.0025,-4.002,-4.0087,-4.0013,-3.9989,-3.9977,-3.9976,-3.9956,-3.9967,-3.9969,-4.0077,-3.9939,-3.9943,-3.9946,-3.9948,-4.0311,-4.0317,0,0,0,0,0,0,-4.008,-4.0074,-4.0143,-4.0141,-4.0049,-4.0032,-4.0026,-4.0051,-4.0012,-4.0,-3.9981,-3.9968,-3.9962,-3.9964,-3.9968,-4.0148,-3.9944,-3.9949,-3.9952,-4.0304,-4.0312,-4.032,0,0,0,0,0,0,-4.0078,-4.0088,-4.0144,-4.0104,-4.0108,-4.004,-4.0069,-4.0053,-4.0064,-4.0006,-3.9992,-4.0006,-3.9957,-3.9961,-4.0053,-4.0144,-3.9951,-3.9955,-4.0296,-4.0307,-4.0316,-4.0509,0,0,0,0,0,0,-4.0076,-4.0088,-4.0147,-4.0107,-4.0111,-4.023,-4.0074,-4.0057,-4.0073,-4.0055,-4.0025,-4.0014,-3.9952,-4.0047,-4.0058,-4.0148,-3.9959,-4.0288,-4.0301,-4.0313,-4.0494,-4.0525,-4.0551,0,0,0,0,0,-4.0074,-4.0203,-4.015,-4.016,-4.0183,-4.0235,-4.0238,-4.0163,-4.0081,-4.0139,-4.0101,-4.0015,-4.0133,-4.0058,-4.0069,-4.0161,-4.0282,-4.0297,-4.0312,-4.0482,-4.0519,-4.055,0,0,0,0,0,0,-4.0256,-4.0196,-4.0137,-4.0257,-4.0253,-4.0206,-4.0277,-4.0204,-4.0224,-4.0206,-4.0113,-4.0108,-4.0214,-4.0197,-4.0114,-4.031,-4.0192,-4.021,-4.0318,-4.0352,-4.038,-4.0382,-3.9963,0,0,0,0,0,-4.031,-4.0357,-4.0302,-4.0414,-4.0414,-4.0347,-4.0367,-4.031,-4.0301,-4.0299,-4.0267,-4.0264,-4.0299,-4.0324,-4.0354,-4.0491,-4.0482,-4.056,-4.0588,-4.0611,-4.0628,-4.0699,-4.0733,-4.0369,-4.0369,-4.0369,0,0,-4.0422,-4.0395,-4.0431,-4.045,-4.0439,-4.049,-4.0346,-4.0407,-4.0444,-4.0308,-4.0392,-4.037,-4.0359,-4.0474,-4.0523,-4.0463,-4.0727,-4.0631,-4.065,-4.0654,-4.0718,-4.0753,-4.0783,-4.0379,-4.0377,-4.0376,0,0,-4.0653,-4.0638,-4.0728,-4.0721,-4.0706,-4.066,-4.0683,-4.0647,-4.0626,-4.071,-4.0608,-4.0652,-4.0715,-4.0711,-4.0718,-4.0947,-4.0869,-4.096,-4.1106,-4.1177,-4.1205,-4.123,-4.1312,-4.1343,-4.0976,-4.0977,-4.0977,0,-4.0795,-4.0868,-4.0784,-4.0851,-4.0863,-4.0741,-4.0832,-4.0829,-4.0826,-4.0836,-4.0768,-4.0845,-4.0829,-4.0941,-4.0997,-4.1007,-4.1029,-4.0963,-4.1208,-4.1232,-4.1254,-4.1331,-4.1362,-4.0988,-4.0987,-4.0986,-4.0985,0,-4.1043,-4.1095,-4.117,-4.1169,-4.1188,-4.1267,-4.1196,-4.1226,-4.1167,-4.1129,-4.1215,-4.1192,-4.1214,-4.1237,-4.118,-4.1342,-4.1304,-4.1224,-4.1104,-4.1301,-4.1372,-4.1401,-4.1004,-4.1,-4.0997,-4.0994,0,0,-4.1389,-4.1339,-4.1369,-4.1366,-4.1341,-4.138,-4.1454,-4.1475,-4.1502,-4.1504,-4.1564,-4.162,-4.1545,-4.1553,-4.1494,-4.1556,-4.1739,-4.1467,-4.1466,-4.1519,-4.1915,-4.1977,-4.2012,-4.1687,-4.1692,-4.1696,-4.1916,0,-4.161,-4.1732,-4.1659,-4.1792,-4.1839,-4.1724,-4.1787,-4.178,-4.1746,-4.1781,-4.1743,-4.1785,-4.1683,-4.1686,-4.1742,-4.1705,-4.1818,-4.1688,-4.1742,-4.1745,-4.1749,-4.2049,-4.2113,-4.2322,-4.1943,-4.1948,-4.1951,0,-4.1885,-4.1898,-4.2036,-4.2,-4.2017,-4.2076,-4.2089,-4.2125,-4.2113,-4.2084,-4.2093,-4.2019,-4.2089,-4.1971,-4.2066,-4.198,-4.1998,-4.1983,-4.1989,-4.1991,-4.1861,-4.206,-4.2387,-4.2419,-4.1994,-4.1991,-4.1988,0,-4.2124,-4.2175,-4.2264,-4.2265,-4.2227,-4.2271,-4.2257,-4.2239,-4.2257,-4.2269,-4.2279,-4.23,-4.2311,-4.2329,-4.2263,-4.2183,-4.2368,-4.2244,-4.2346,-4.2348,-4.239,-4.2389,-4.2726,-4.2402,-4.2402,-4.2401,-4.2401,0,-4.2379,-4.2468,-4.237,-4.2425,-4.2521,-4.2436,-4.2534,-4.2508,-4.2493,-4.2541,-4.2443,-4.249,-4.24,-4.2439,-4.2388,-4.2475,-4.2481,-4.246,-4.2445,-4.2469,-4.2472,-4.2479,-4.2463,-4.2409,-4.2408,-4.2406,-4.2405,0,-4.2661,-4.26,-4.2689,-4.2645,-4.2636,-4.2709,-4.2671,-4.272,-4.2679,-4.2741,-4.2751,-4.2687,-4.2728,-4.2663,-4.2697,-4.2662,-4.2783,-4.2746,-4.2787,-4.2776,-4.2882,-4.2873,-4.3236,-4.3279,-4.2929,-4.2932,-4.2935,0,-4.2828,-4.2894,-4.2856,-4.2881,-4.2872,-4.2914,-4.293,-4.2849,-4.2871,-4.2863,-4.2913,-4.2945,-4.2966,-4.3036,-4.2993,-4.3018,-4.2981,-4.3106,-4.2984,-4.3006,-4.2983,-4.298,-4.2986,-4.3132,-4.3136,-4.3139,-4.3142,0,-4.3131,-4.3097,-4.3124,-4.3142,-4.3164,-4.3174,-4.3177,-4.3203,-4.3117,-4.3147,-4.3186,-4.3203,-4.3236,-4.3269,-4.3283,-4.3269,-4.3193,-4.3181,-4.3206,-4.3231,-4.3252,-4.3242,-4.2856,-4.3173,-4.317,-4.3168,-4.3166,-4.3165,-4.3361,-4.3413,-4.3395,-4.3429,-4.3422,-4.3427,-4.347,-4.3435,-4.3466,-4.3485,-4.3436,-4.3488,-4.3474,-4.3485,-4.348,-4.3519,-4.3464,-4.35,-4.351,-4.352,-4.3537,-4.3245,-4.3521,-4.352,-4.352,-4.3519,-4.3518,0,-4.3658,-4.364,-4.3672,-4.3679,-4.3706,-4.3629,-4.3628,-4.3656,-4.3702,-4.3696,-4.3718,-4.3764,-4.3795,-4.3755,-4.3779,-4.3819,-4.3784,-4.3828,-4.3824,-4.3822,-4.3584,-4.356,-4.3855,-4.3855,-4.3855,-4.3855,-4.3855,-4.3855,-4.3816,-4.3901,-4.3865,-4.3946,-4.3927,-4.3976,-4.3982,-4.3986,-4.398,-4.4035,-4.406,-4.4033,-4.4013,-4.4035,-4.4061,-4.4048,-4.4062,-4.4118,-4.4094,-4.3872,-4.3839,-4.3808,-4.3784,-4.4122,-4.4122,-4.4328,-4.433,-4.4331]},{"header":{"parameterUnit":"m.s-1","parameterCategory":1,"la1":30.2991,"la2":30.254,"lo1":-89.0895,"lo2":-89.0444,"dy":0.0017,"dx":0.0017,"nx":28,"ny":28,"refTime":"2025-01-13T03:00:00:Z","depth":0,"parameterNumber":3,"parameterNumberName":"V-component_of_WINDS"},"data":[0,0,0,0,0,0,0,0,0,0,0,0,0,0,0,0,0,0,0,0,0,0,0,0,0,0,0,0,0,0,0,0,0,0,0,0,0,0,0,0,0,0,0,0,0,0,0,0,0,0,0,0,0,0,0,0,0,0,-0.3478,-0.3479,0,-0.3503,-0.3503,-0.3504,-0.3481,-0.348,-0.3479,-0.3478,-0.3507,-0.3509,-0.3511,0,0,0,0,0,0,0,0,0,0,0,0,0,-0.3413,-0.3415,-0.3478,-0.3479,-0.3479,-0.3503,-0.3503,-0.3504,-0.3481,-0.348,-0.3479,-0.3478,-0.3507,-0.3509,-0.3511,0,0,0,0,0,0,0,0,0,0,0,0,0,-0.344,-0.3415,-0.3478,-0.347,-0.347,-0.3503,-0.3504,-0.3504,-0.3481,-0.348,-0.3479,-0.3477,-0.3506,-0.3509,-0.3511,-0.3554,0,0,-0.3519,-0.352,0,0,0,0,0,0,0,0,-0.3439,-0.3443,-0.3471,-0.3471,-0.3471,-0.3487,-0.3491,-0.3521,-0.3482,-0.3477,-0.3478,-0.3477,-0.3502,-0.3505,-0.3513,-0.3556,-0.3557,-0.3519,-0.352,-0.3521,-0.3522,0,0,0,0,0,0,0,-0.3437,-0.3441,-0.3488,-0.3472,-0.3471,-0.3466,-0.3469,-0.3497,-0.3497,-0.3477,-0.3476,-0.3479,-0.3502,-0.351,-0.3513,-0.3557,-0.3519,-0.3521,-0.3522,-0.3523,-0.3636,-0.3637,0,0,0,0,0,0,-0.3435,-0.344,-0.3487,-0.3489,-0.3451,-0.3469,-0.3471,-0.3484,-0.3497,-0.3498,-0.348,-0.3478,-0.3507,-0.351,-0.3514,-0.3565,-0.3521,-0.3524,-0.3525,-0.3634,-0.3636,-0.3638,0,0,0,0,0,0,-0.3434,-0.344,-0.3486,-0.3464,-0.347,-0.3471,-0.3485,-0.3485,-0.3493,-0.3499,-0.3499,-0.3489,-0.3506,-0.3511,-0.3544,-0.3566,-0.3525,-0.3527,-0.3633,-0.3635,-0.3637,-0.3668,0,0,0,0,0,0,-0.3432,-0.344,-0.3456,-0.3465,-0.3471,-0.3515,-0.3487,-0.3486,-0.3497,-0.3494,-0.3507,-0.3508,-0.3505,-0.354,-0.3546,-0.3569,-0.3529,-0.3631,-0.3634,-0.3636,-0.3665,-0.3671,-0.3676,0,0,0,0,0,-0.343,-0.3464,-0.3457,-0.3462,-0.3491,-0.3517,-0.352,-0.3516,-0.3499,-0.3516,-0.3519,-0.3507,-0.3562,-0.3544,-0.3551,-0.3574,-0.3629,-0.3633,-0.3636,-0.3662,-0.367,-0.3676,0,0,0,0,0,0,-0.346,-0.3465,-0.3457,-0.3495,-0.3505,-0.3513,-0.3533,-0.3524,-0.354,-0.3537,-0.3531,-0.3534,-0.3569,-0.3575,-0.3554,-0.3616,-0.3593,-0.3598,-0.3611,-0.3618,-0.3623,-0.3622,-0.3531,0,0,0,0,0,-0.347,-0.349,-0.3494,-0.3527,-0.3533,-0.3532,-0.3543,-0.3538,-0.3549,-0.3554,-0.356,-0.3572,-0.3591,-0.3605,-0.3624,-0.3665,-0.3668,-0.3684,-0.369,-0.3694,-0.3699,-0.3721,-0.3728,-0.3649,-0.3649,-0.3649,0,0,-0.3493,-0.3499,-0.3512,-0.3533,-0.3541,-0.3562,-0.3536,-0.356,-0.3575,-0.3558,-0.3589,-0.3594,-0.3607,-0.3644,-0.3661,-0.365,-0.3721,-0.3699,-0.3702,-0.3704,-0.3725,-0.3732,-0.3739,-0.3651,-0.3651,-0.3651,0,0,-0.3546,-0.3552,-0.3579,-0.3587,-0.3598,-0.3597,-0.3603,-0.3612,-0.3614,-0.3644,-0.3632,-0.365,-0.3685,-0.3694,-0.3704,-0.3757,-0.3747,-0.3764,-0.3793,-0.3814,-0.382,-0.3826,-0.3845,-0.3852,-0.3768,-0.3768,-0.3768,0,-0.3573,-0.3603,-0.3595,-0.3619,-0.3629,-0.3612,-0.364,-0.3648,-0.3665,-0.3673,-0.366,-0.3701,-0.3709,-0.3748,-0.3761,-0.3769,-0.3777,-0.3763,-0.382,-0.3825,-0.383,-0.3849,-0.3856,-0.377,-0.377,-0.3769,-0.3769,0,-0.3636,-0.3657,-0.3678,-0.3693,-0.3705,-0.3731,-0.3728,-0.3741,-0.3735,-0.3735,-0.3767,-0.3775,-0.3794,-0.3803,-0.3798,-0.3841,-0.3834,-0.382,-0.3798,-0.384,-0.3857,-0.3864,-0.3773,-0.3772,-0.3771,-0.3771,0,0,-0.371,-0.3718,-0.3726,-0.3732,-0.3742,-0.3758,-0.3783,-0.3801,-0.3812,-0.3824,-0.3845,-0.3874,-0.3861,-0.3871,-0.3867,-0.3885,-0.3927,-0.387,-0.387,-0.388,-0.3975,-0.3985,-0.3993,-0.392,-0.3921,-0.3922,-0.3974,0,-0.3762,-0.3804,-0.3797,-0.3838,-0.3858,-0.3841,-0.3863,-0.3871,-0.3872,-0.3889,-0.389,-0.391,-0.3892,-0.3898,-0.3916,-0.3918,-0.3946,-0.3914,-0.394,-0.3941,-0.3938,-0.4002,-0.4014,-0.4062,-0.398,-0.3982,-0.3982,0,-0.383,-0.3842,-0.3885,-0.389,-0.3898,-0.3917,-0.3932,-0.3948,-0.3958,-0.3957,-0.3967,-0.3959,-0.3984,-0.396,-0.3996,-0.3974,-0.3984,-0.3987,-0.3989,-0.3992,-0.3965,-0.4007,-0.4077,-0.4085,-0.3993,-0.3992,-0.3991,0,-0.3879,-0.3906,-0.3935,-0.3941,-0.3948,-0.3962,-0.3966,-0.3973,-0.3984,-0.3997,-0.4004,-0.402,-0.403,-0.4043,-0.4039,-0.4022,-0.4075,-0.4051,-0.4076,-0.4076,-0.4088,-0.4088,-0.4161,-0.4094,-0.4094,-0.4094,-0.4094,0,-0.3939,-0.3966,-0.3957,-0.3975,-0.4004,-0.3995,-0.4025,-0.4027,-0.4034,-0.4052,-0.4039,-0.4057,-0.405,-0.4068,-0.4065,-0.4095,-0.4099,-0.4099,-0.4099,-0.4101,-0.4101,-0.4108,-0.4105,-0.4096,-0.4095,-0.4095,-0.4095,0,-0.3999,-0.3994,-0.4025,-0.4028,-0.4029,-0.4051,-0.4054,-0.4071,-0.407,-0.4093,-0.4098,-0.4097,-0.4117,-0.4114,-0.4136,-0.4134,-0.4171,-0.4166,-0.4167,-0.4166,-0.4191,-0.4189,-0.4273,-0.4283,-0.4209,-0.4209,-0.421,0,-0.4038,-0.4058,-0.4063,-0.4073,-0.4077,-0.4095,-0.4105,-0.4097,-0.4108,-0.4119,-0.4135,-0.4152,-0.4167,-0.4199,-0.4201,-0.4218,-0.4213,-0.4241,-0.4216,-0.4217,-0.4214,-0.4213,-0.4215,-0.4246,-0.4247,-0.4248,-0.4249,0,-0.4107,-0.4103,-0.4118,-0.4131,-0.4142,-0.4153,-0.4162,-0.4172,-0.4164,-0.4178,-0.4197,-0.4207,-0.4229,-0.4247,-0.4263,-0.4268,-0.4257,-0.4256,-0.4263,-0.4266,-0.4266,-0.4266,-0.4182,-0.4255,-0.4254,-0.4254,-0.4253,-0.4253,-0.4158,-0.4175,-0.418,-0.4196,-0.4202,-0.421,-0.4226,-0.4226,-0.4241,-0.4257,-0.4251,-0.4273,-0.4281,-0.43,-0.4306,-0.4324,-0.4314,-0.4323,-0.4326,-0.4328,-0.4331,-0.4262,-0.4327,-0.4326,-0.4326,-0.4326,-0.4326,0,-0.4227,-0.4229,-0.4244,-0.4256,-0.4268,-0.4255,-0.4264,-0.4276,-0.4295,-0.4302,-0.4316,-0.4337,-0.4354,-0.4357,-0.4373,-0.4386,-0.4382,-0.4391,-0.439,-0.4392,-0.434,-0.4332,-0.4394,-0.4394,-0.4394,-0.4394,-0.4394,-0.4394,-0.4264,-0.4291,-0.4288,-0.4317,-0.4319,-0.4339,-0.4345,-0.4353,-0.4359,-0.4383,-0.4396,-0.4397,-0.4402,-0.4419,-0.4434,-0.4434,-0.4441,-0.4452,-0.4451,-0.4402,-0.4395,-0.4389,-0.4382,-0.4454,-0.4454,-0.4501,-0.4502,-0.4502]}]]